Location: Chmeli�t?
(49.8978°N, 15.0526°E)
Time: 22:24:06
(UTC+00:00)

Cosmos 1570 Rocket - Pass Details

Date: 07 June 2020
Orbit: 764 x 787 km, 74.1° (Epoch: 11 July)

Event Time Altitude Azimuth Distance (km) Brightness Sun altitude
Exits shadow 00:04:58 25° 210° (SSW) 1,537 5.0 -15.9°
Maximum altitude 00:08:08 79° 294° (WNW) 796 4.0 -15.7°
Drops below altitude 10° 00:13:26 10° 22° (NNE) 2,326 7.9 -15.5°
Sets 00:15:49 0° 24° (NNE) 3,254 9.1 -15.3°
